Jacksonville, FL

9:59 PM EDT on August 23, 2017 (GMT -0400)
Jacksonville International

Weather History for KJAX - November, 2012

Change the Weather History Date:

Monday, November 19, 2012

  Actual Average Record
Temperature  
Mean Temperature 57 °F 61 °F  
Max Temperature 59 °F 73 °F 84 °F (1948)
Min Temperature 54 °F 50 °F 27 °F (2014)
Degree Days  
Heating Degree Days 8 5  
Month to date heating degree days 110 73  
Since 1 July heating degree days 142 101  
Cooling Degree Days 0 2  
Month to date cooling degree days 14 46  
Year to date cooling degree days 2743 2629  
Growing Degree Days 6 (Base 50)    
Moisture  
Dew Point 52 °F    
Average Humidity 84    
Maximum Humidity 93    
Minimum Humidity 75    
Precipitation  
Precipitation 0.00 in 0.07 in 1.21 in (1939)
Month to date precipitation 0.25 1.37  
Year to date precipitation 51.08 48.85  
Snow  
Snow 0.00 in 0.00 in 0.00 in (2001)
Month to date snowfall 0.0 0.0  
Since 1 July snowfall 0.0 0.0  
Since 1 September snowfall 0.0 0.0  
Snow Depth 0.00 in    
Sea Level Pressure  
Sea Level Pressure 30.16 in    
Wind  
Wind Speed 6 mph (North)    
Max Wind Speed 14 mph    
Max Gust Speed 18 mph    
Visibility 10 miles    
Events      
T = Trace of Precipitation, MM = Missing Value Source: NWS Daily Summary

Daily Weather History Graph

Daily Weather History Graph

Search for Another Location

Airport or City:

Trip Planner

Search our weather history database for the weather conditions in past years. The results will help you decide how hot, cold, wet, or windy it might be!

Date:

Astronomy

Nov. 19, 2012 Rise Set
Actual Time 6:56 AM EST 5:27 PM EST
Civil Twilight 6:30 AM EST 5:53 PM EST
Nautical Twilight 6:01 AM EST 6:22 PM EST
Astronomical Twilight 5:32 AM EST 6:51 PM EST
Moon 12:07 PM EST (11/19) 11:42 PM EST (11/19)
Length of Visible Light 11h 22m
Length of Day
10h 31m
Waxing Crescent, 40% of the Moon is Illuminated
Nov 19
Waxing Crescent
Nov 20
First Quarter
Nov 28
Full
Dec 6
Last Quarter
Dec 13
New

Hourly Weather History & Observations

Time (EST) Temp. Dew Point Humidity Pressure Visibility Wind Dir Wind Speed Gust Speed Precip Events Conditions
12:56 AM 55.9 °F 50.0 °F 80% 30.18 in 10.0 mi North 10.4 mph - N/A   Overcast
1:56 AM 55.9 °F 50.0 °F 80% 30.18 in 10.0 mi North 6.9 mph - N/A   Overcast
2:56 AM 55.9 °F 51.1 °F 84% 30.19 in 10.0 mi NNW 8.1 mph - N/A   Overcast
3:08 AM 55.4 °F 51.8 °F 88% 30.18 in 10.0 mi NNW 10.4 mph - N/A   Overcast
3:56 AM 55.0 °F 51.1 °F 86% 30.19 in 10.0 mi NNW 5.8 mph - N/A   Overcast
4:56 AM 55.0 °F 51.1 °F 86% 30.17 in 10.0 mi North 8.1 mph - N/A   Overcast
5:56 AM 54.0 °F 51.1 °F 90% 30.18 in 9.0 mi NNW 9.2 mph - N/A   Overcast
6:10 AM 53.6 °F 51.8 °F 94% 30.18 in 9.0 mi NNW 6.9 mph - N/A   Overcast
6:56 AM 53.6 °F 51.8 °F 94% 30.19 in 10.0 mi North 6.9 mph - N/A   Overcast
7:56 AM 55.0 °F 51.1 °F 86% 30.19 in 10.0 mi North 6.9 mph - N/A   Overcast
8:56 AM 55.9 °F 50.0 °F 80% 30.20 in 10.0 mi North 10.4 mph - N/A   Overcast
9:56 AM 55.9 °F 51.1 °F 84% 30.21 in 10.0 mi North 9.2 mph - N/A   Overcast
10:56 AM 57.0 °F 51.1 °F 81% 30.20 in 10.0 mi North 9.2 mph - N/A   Overcast
11:56 AM 57.0 °F 51.1 °F 81% 30.17 in 10.0 mi North 9.2 mph - N/A   Overcast
12:56 PM 59.0 °F 51.8 °F 77% 30.14 in 10.0 mi North 10.4 mph 17.3 mph N/A   Overcast
1:56 PM 57.9 °F 51.1 °F 78% 30.13 in 10.0 mi NNE 8.1 mph - N/A   Overcast
2:56 PM 57.9 °F 51.1 °F 78% 30.14 in 10.0 mi North 6.9 mph - N/A   Overcast
3:45 PM 57.2 °F 51.8 °F 82% 30.13 in 10.0 mi NNE 4.6 mph - N/A   Overcast
3:56 PM 57.9 °F 52.0 °F 81% 30.14 in 10.0 mi NNE 4.6 mph - N/A   Overcast
4:56 PM 57.9 °F 52.0 °F 81% 30.13 in 10.0 mi NNW 4.6 mph - N/A   Overcast
5:56 PM 57.9 °F 53.1 °F 84% 30.13 in 10.0 mi NNE 3.5 mph - N/A   Overcast
6:56 PM 57.9 °F 53.1 °F 84% 30.14 in 10.0 mi Calm Calm - N/A   Overcast
7:56 PM 57.9 °F 54.0 °F 87% 30.14 in 10.0 mi Calm Calm - N/A   Overcast
8:56 PM 57.9 °F 54.0 °F 87% 30.16 in 10.0 mi West 3.5 mph - N/A   Overcast
9:56 PM 57.9 °F 54.0 °F 87% 30.14 in 10.0 mi NNW 3.5 mph - N/A   Overcast
10:56 PM 57.9 °F 54.0 °F 87% 30.12 in 10.0 mi NNW 4.6 mph - N/A   Overcast
11:56 PM 57.9 °F 54.0 °F 87% 30.12 in 10.0 mi NNW 3.5 mph - N/A   Overcast